Weather History for Lovelock, NV

Change the Weather History Date:

Thursday, September 6, 2012

  Actual Average Record
Temperature  
Mean Temperature 78 °F -  
Max Temperature 90 °F 87 °F 100 °F (1988)
Min Temperature 64 °F 49 °F 35 °F (1954)
Cooling Degree Days 12    
Growing Degree Days 28 (Base 50)    
Moisture  
Dew Point 50 °F    
Average Humidity 42    
Maximum Humidity 78    
Minimum Humidity 21    
Precipitation  
Precipitation 0.04 in - - ()
Sea Level Pressure  
Sea Level Pressure 29.94 in    
Wind  
Wind Speed 6 mph (West)    
Max Wind Speed 12 mph    
Max Gust Speed 25 mph    
Visibility 10 miles    
Events      
Averages and records for this station are not official NWS values.
T = Trace of Precipitation, MM = Missing Value Source: NWS Daily Summary

Daily Weather History Graph

Daily Weather History Graph

Search for Another Location

Airport:

Trip Planner

Search our weather history database for the weather conditions in past years. The results will help you decide how hot, cold, wet, or windy it might be!

Date:

Astronomy

Sep. 06, 2012 Rise Set
Actual Time 6:27 AM PDT 7:16 PM PDT
Civil Twilight 5:59 AM PDT 7:44 PM PDT
Nautical Twilight 5:27 AM PDT 8:16 PM PDT
Astronomical Twilight 4:53 AM PDT 8:50 PM PDT
Moon 10:30 PM PDT (9/6) 12:30 PM PDT (9/6)
Length of Visible Light 13h 44m
Length of Day
12h 49m
Waning Gibbous, 66% of the Moon is Illuminated
Sep 6
Waning Gibbous
Sep 8
Last Quarter
Sep 15
New
Sep 22
First Quarter
Sep 29
Full

Hourly Weather History & Observations

Time (PDT) Temp. Heat Index Dew Point Humidity Pressure Visibility Wind Dir Wind Speed Gust Speed Precip Events Conditions
12:53 AM 78.1 °F - 41.0 °F 27% 29.88 in 10.0 mi NW 11.5 mph 25.3 mph N/A   Clear
1:53 AM 75.9 °F - 42.1 °F 30% 29.88 in 10.0 mi NW 3.5 mph - N/A   Scattered Clouds
2:53 AM 75.9 °F - 46.0 °F 35% 29.90 in 10.0 mi North 9.2 mph - N/A   Mostly Cloudy
3:53 AM 73.9 °F - 50.0 °F 43% 29.91 in 10.0 mi North 8.1 mph - 0.00 in   Overcast
4:53 AM 72.0 °F - 50.0 °F 46% 29.94 in 10.0 mi NNE 5.8 mph - N/A   Mostly Cloudy
5:53 AM 71.1 °F - 52.0 °F 51% 29.95 in 10.0 mi Variable 3.5 mph - N/A   Overcast
6:53 AM 66.0 °F - 55.9 °F 70% 29.97 in 10.0 mi South 6.9 mph - 0.00 in   Overcast
7:53 AM 66.0 °F - 59.0 °F 78% 30.00 in 10.0 mi ENE 4.6 mph - 0.04 in   Mostly Cloudy
8:53 AM 69.1 °F - 57.0 °F 65% 30.01 in 10.0 mi Calm Calm - N/A   Overcast
9:53 AM 71.1 °F - 57.0 °F 61% 30.02 in 10.0 mi Calm Calm - N/A   Mostly Cloudy
10:53 AM 75.9 °F - 55.0 °F 48% 30.00 in 10.0 mi Calm Calm - N/A   Partly Cloudy
11:53 AM 80.1 °F 80.0 °F 54.0 °F 40% 29.99 in 10.0 mi Variable 3.5 mph - N/A   Partly Cloudy
12:53 PM 82.9 °F - 52.0 °F 34% 29.96 in 10.0 mi North - - N/A   Clear
1:53 PM 86.0 °F - 51.1 °F 30% 29.94 in 10.0 mi WSW 11.5 mph 16.1 mph N/A   Clear
2:53 PM 87.1 °F - 50.0 °F 28% 29.91 in 10.0 mi Variable 5.8 mph - N/A   Clear
3:53 PM 89.1 °F - 46.9 °F 23% 29.89 in 10.0 mi Calm Calm - N/A   Clear
4:53 PM 89.1 °F - 44.1 °F 21% 29.88 in 10.0 mi Calm Calm - N/A   Mostly Cloudy
5:53 PM 87.1 °F - 46.0 °F 24% 29.89 in 10.0 mi ESE 8.1 mph - N/A   Mostly Cloudy
6:53 PM 82.9 °F - 46.9 °F 28% 29.90 in 10.0 mi SE 6.9 mph - N/A   Partly Cloudy
7:53 PM 75.0 °F - 46.0 °F 36% 29.94 in 10.0 mi SSW 6.9 mph - N/A   Clear
8:53 PM 75.0 °F - 48.0 °F 38% 29.96 in 10.0 mi WSW 4.6 mph - N/A   Clear
9:53 PM 70.0 °F - 48.0 °F 46% 29.97 in 10.0 mi NW 3.5 mph - N/A   Clear
10:53 PM 66.9 °F - 46.0 °F 47% 29.98 in 10.0 mi SSW 3.5 mph - N/A   Scattered Clouds
11:53 PM 64.9 °F - 45.0 °F 48% 29.99 in 10.0 mi SSE 4.6 mph - N/A   Mostly Cloudy